Time,TemperatureF,DewpointF,PressureIn,WindDirection,WindDirectionDegrees,WindSpeedMPH,WindSpeedGustMPH,Humidity,HourlyPrecipIn,Conditions,Clouds,dailyrainin,SolarRadiationWatts/m^2,SoftwareType,DateUTC
2013-03-15 00:02:00,21.0,-5.0,-100.00,SE,142,6.0,11.0,31,0.00,,,0.00,0.000000,,2013-03-15 08:02:00,
2013-03-15 00:12:00,21.0,-5.0,-100.00,SE,142,6.0,11.0,31,0.00,,,0.00,0.000000,,2013-03-15 08:12:00,
2013-03-15 00:22:00,21.0,-5.0,-100.00,SE,142,6.0,11.0,31,0.00,,,0.00,0.000000,,2013-03-15 08:22:00,
2013-03-15 00:42:00,21.0,-4.0,-100.00,SSE,152,5.0,9.0,32,0.00,,,0.00,0.000000,,2013-03-15 08:42:00,
2013-03-15 00:52:00,21.0,-4.0,-100.00,SSE,152,5.0,9.0,32,0.00,,,0.00,0.000000,,2013-03-15 08:52:00,
2013-03-15 01:02:00,21.0,-4.0,-100.00,SSE,152,5.0,9.0,32,0.00,,,0.00,0.000000,,2013-03-15 09:02:00,
2013-03-15 01:11:00,21.0,-4.0,-100.00,SSE,152,5.0,9.0,32,0.00,,,0.00,0.000000,,2013-03-15 09:11:00,
2013-03-15 01:21:00,21.0,-4.0,-100.00,SSE,152,5.0,9.0,32,0.00,,,0.00,0.000000,,2013-03-15 09:21:00,
2013-03-15 01:43:00,21.0,-5.0,-100.00,SSE,148,7.0,12.0,31,0.00,,,0.00,0.000000,,2013-03-15 09:43:00,
2013-03-15 01:53:00,21.0,-5.0,-100.00,SSE,148,7.0,12.0,31,0.00,,,0.00,0.000000,,2013-03-15 09:53:00,
2013-03-15 02:02:00,21.0,-5.0,-100.00,SSE,148,7.0,12.0,31,0.00,,,0.00,0.000000,,2013-03-15 10:02:00,
2013-03-15 02:12:00,21.0,-5.0,-100.00,SSE,148,7.0,12.0,31,0.00,,,0.00,0.000000,,2013-03-15 10:12:00,
2013-03-15 02:22:00,21.0,-5.0,-100.00,SSE,148,7.0,12.0,31,0.00,,,0.00,0.000000,,2013-03-15 10:22:00,
2013-03-15 02:43:00,21.0,-5.0,-100.00,SSE,149,7.0,13.0,31,0.00,,,0.00,0.000000,,2013-03-15 10:43:00,
2013-03-15 02:52:00,21.0,-5.0,-100.00,SSE,149,7.0,13.0,31,0.00,,,0.00,0.000000,,2013-03-15 10:52:00,
2013-03-15 03:02:00,21.0,-5.0,-100.00,SSE,149,7.0,13.0,31,0.00,,,0.00,0.000000,,2013-03-15 11:02:00,
2013-03-15 03:12:00,21.0,-5.0,-100.00,SSE,149,7.0,13.0,31,0.00,,,0.00,0.000000,,2013-03-15 11:12:00,
2013-03-15 03:22:00,21.0,-5.0,-100.00,SSE,149,7.0,13.0,31,0.00,,,0.00,0.000000,,2013-03-15 11:22:00,
2013-03-15 03:42:00,19.0,-6.0,-100.00,SE,141,7.0,13.0,32,0.00,,,0.00,0.000000,,2013-03-15 11:42:00,
2013-03-15 03:52:00,19.0,-6.0,-100.00,SE,141,7.0,13.0,32,0.00,,,0.00,0.000000,,2013-03-15 11:52:00,
2013-03-15 04:02:00,19.0,-6.0,-100.00,SE,141,7.0,13.0,32,0.00,,,0.00,0.000000,,2013-03-15 12:02:00,
2013-03-15 04:12:00,19.0,-6.0,-100.00,SE,141,7.0,13.0,32,0.00,,,0.00,0.000000,,2013-03-15 12:12:00,
2013-03-15 04:21:00,19.0,-6.0,-100.00,SE,141,7.0,13.0,32,0.00,,,0.00,0.000000,,2013-03-15 12:21:00,
2013-03-15 04:42:00,19.0,-4.0,-100.00,SSE,149,8.0,16.0,35,0.00,,,0.00,0.000000,,2013-03-15 12:42:00,
2013-03-15 04:52:00,19.0,-4.0,-100.00,SSE,149,8.0,16.0,35,0.00,,,0.00,0.000000,,2013-03-15 12:52:00,
2013-03-15 05:02:00,19.0,-4.0,-100.00,SSE,149,8.0,16.0,35,0.00,,,0.00,0.000000,,2013-03-15 13:02:00,
2013-03-15 05:12:00,19.0,-4.0,-100.00,SSE,149,8.0,16.0,35,0.00,,,0.00,0.000000,,2013-03-15 13:12:00,
2013-03-15 05:21:00,19.0,-4.0,-100.00,SSE,149,8.0,16.0,35,0.00,,,0.00,0.000000,,2013-03-15 13:21:00,
2013-03-15 05:42:00,19.0,-3.0,-100.00,SSE,147,8.0,13.0,37,0.00,,,0.00,0.000000,,2013-03-15 13:42:00,
2013-03-15 05:52:00,19.0,-3.0,-100.00,SSE,147,8.0,13.0,37,0.00,,,0.00,0.000000,,2013-03-15 13:52:00,
2013-03-15 06:02:00,19.0,-3.0,-100.00,SSE,147,8.0,13.0,37,0.00,,,0.00,0.000000,,2013-03-15 14:02:00,
2013-03-15 06:11:00,19.0,-3.0,-100.00,SSE,147,8.0,13.0,37,0.00,,,0.00,0.000000,,2013-03-15 14:11:00,
2013-03-15 06:21:00,19.0,-3.0,-100.00,SSE,147,8.0,13.0,37,0.00,,,0.00,0.000000,,2013-03-15 14:21:00,
2013-03-15 06:42:00,19.0,-1.0,-100.00,SSE,149,8.0,14.0,39,0.00,,,0.00,0.000000,,2013-03-15 14:42:00,
2013-03-15 06:53:00,19.0,-1.0,-100.00,SSE,149,8.0,14.0,39,0.00,,,0.00,0.000000,,2013-03-15 14:53:00,
2013-03-15 07:02:00,19.0,-1.0,-100.00,SSE,149,8.0,14.0,39,0.00,,,0.00,0.000000,,2013-03-15 15:02:00,
2013-03-15 07:12:00,19.0,-1.0,-100.00,SSE,149,8.0,14.0,39,0.00,,,0.00,0.000000,,2013-03-15 15:12:00,
2013-03-15 07:21:00,19.0,-1.0,-100.00,SSE,149,8.0,14.0,39,0.00,,,0.00,0.000000,,2013-03-15 15:21:00,
2013-03-15 07:53:00,18.0,3.0,-100.00,SSE,155,9.0,13.0,53,0.00,,,0.00,0.000000,,2013-03-15 15:53:00,
2013-03-15 08:02:00,18.0,3.0,-100.00,SSE,155,9.0,13.0,53,0.00,,,0.00,0.000000,,2013-03-15 16:02:00,
2013-03-15 08:12:00,18.0,3.0,-100.00,SSE,155,9.0,13.0,53,0.00,,,0.00,0.000000,,2013-03-15 16:12:00,
2013-03-15 08:22:00,18.0,3.0,-100.00,SSE,155,9.0,13.0,53,0.00,,,0.00,0.000000,,2013-03-15 16:22:00,
2013-03-15 08:42:00,18.0,3.0,-100.00,SSE,151,10.0,15.0,53,0.00,,,0.00,4.000000,,2013-03-15 16:42:00,
2013-03-15 08:52:00,18.0,3.0,-100.00,SSE,151,10.0,15.0,53,0.00,,,0.00,4.000000,,2013-03-15 16:52:00,
2013-03-15 09:02:00,18.0,3.0,-100.00,SSE,151,10.0,15.0,53,0.00,,,0.00,4.000000,,2013-03-15 17:02:00,
2013-03-15 09:12:00,18.0,3.0,-100.00,SSE,151,10.0,15.0,53,0.00,,,0.00,4.000000,,2013-03-15 17:12:00,
2013-03-15 09:21:00,18.0,3.0,-100.00,SSE,151,10.0,15.0,53,0.00,,,0.00,4.000000,,2013-03-15 17:21:00,
2013-03-15 09:43:00,18.0,8.0,-100.00,SSE,154,10.0,15.0,64,0.00,,,0.00,17.000000,,2013-03-15 17:43:00,
2013-03-15 09:53:00,18.0,8.0,-100.00,SSE,154,10.0,15.0,64,0.00,,,0.00,17.000000,,2013-03-15 17:53:00,
2013-03-15 10:02:00,18.0,8.0,-100.00,SSE,154,10.0,15.0,64,0.00,,,0.00,17.000000,,2013-03-15 18:02:00,
2013-03-15 10:12:00,18.0,8.0,-100.00,SSE,154,10.0,15.0,64,0.00,,,0.00,17.000000,,2013-03-15 18:12:00,
2013-03-15 10:21:00,18.0,8.0,-100.00,SSE,154,10.0,15.0,64,0.00,,,0.00,17.000000,,2013-03-15 18:21:00,
2013-03-15 10:42:00,16.0,5.0,-100.00,SSE,160,10.0,15.0,63,0.00,,,0.00,55.000000,,2013-03-15 18:42:00,
2013-03-15 10:52:00,16.0,5.0,-100.00,SSE,160,10.0,15.0,63,0.00,,,0.00,55.000000,,2013-03-15 18:52:00,
2013-03-15 11:02:00,16.0,5.0,-100.00,SSE,160,10.0,15.0,63,0.00,,,0.00,55.000000,,2013-03-15 19:02:00,
2013-03-15 11:12:00,16.0,5.0,-100.00,SSE,160,10.0,15.0,63,0.00,,,0.00,55.000000,,2013-03-15 19:12:00,
2013-03-15 11:21:00,16.0,5.0,-100.00,SSE,160,10.0,15.0,63,0.00,,,0.00,55.000000,,2013-03-15 19:21:00,
2013-03-15 11:42:00,18.0,1.0,-100.00,SSE,154,9.0,17.0,48,0.00,,,-99.99,110.000000,,2013-03-15 19:42:00,
2013-03-15 11:52:00,18.0,1.0,-100.00,SSE,154,9.0,17.0,48,0.00,,,-99.99,110.000000,,2013-03-15 19:52:00,
2013-03-15 12:02:00,18.0,1.0,-100.00,SSE,154,9.0,17.0,48,0.00,,,-99.99,110.000000,,2013-03-15 20:02:00,
2013-03-15 12:12:00,18.0,1.0,-100.00,SSE,154,9.0,17.0,48,0.00,,,-99.99,110.000000,,2013-03-15 20:12:00,
2013-03-15 12:21:00,18.0,1.0,-100.00,SSE,154,9.0,17.0,48,0.00,,,-99.99,110.000000,,2013-03-15 20:21:00,
2013-03-15 12:42:00,18.0,2.0,-100.00,SSE,157,9.0,14.0,50,0.00,,,-99.99,141.000000,,2013-03-15 20:42:00,
2013-03-15 12:52:00,18.0,2.0,-100.00,SSE,157,9.0,14.0,50,0.00,,,-99.99,141.000000,,2013-03-15 20:52:00,
2013-03-15 13:02:00,18.0,2.0,-100.00,SSE,157,9.0,14.0,50,0.00,,,-99.99,141.000000,,2013-03-15 21:02:00,
2013-03-15 13:12:00,18.0,2.0,-100.00,SSE,157,9.0,14.0,50,0.00,,,-99.99,141.000000,,2013-03-15 21:12:00,
2013-03-15 13:21:00,18.0,2.0,-100.00,SSE,157,9.0,14.0,50,0.00,,,-99.99,141.000000,,2013-03-15 21:21:00,
2013-03-15 13:43:00,19.0,1.0,-100.00,SSE,152,8.0,15.0,44,0.00,,,0.00,241.000000,,2013-03-15 21:43:00,
2013-03-15 13:52:00,19.0,1.0,-100.00,SSE,152,8.0,15.0,44,0.00,,,0.00,241.000000,,2013-03-15 21:52:00,
2013-03-15 14:03:00,19.0,1.0,-100.00,SSE,152,8.0,15.0,44,0.00,,,0.00,241.000000,,2013-03-15 22:03:00,
2013-03-15 14:12:00,19.0,1.0,-100.00,SSE,152,8.0,15.0,44,0.00,,,0.00,241.000000,,2013-03-15 22:12:00,
2013-03-15 14:22:00,19.0,1.0,-100.00,SSE,152,8.0,15.0,44,0.00,,,0.00,241.000000,,2013-03-15 22:22:00,
2013-03-15 14:42:00,21.0,-1.0,-100.00,SSE,148,7.0,13.0,37,0.00,,,0.00,278.000000,,2013-03-15 22:42:00,
2013-03-15 14:52:00,21.0,-1.0,-100.00,SSE,148,7.0,13.0,37,0.00,,,0.00,278.000000,,2013-03-15 22:52:00,
2013-03-15 15:02:00,21.0,-1.0,-100.00,SSE,148,7.0,13.0,37,0.00,,,0.00,278.000000,,2013-03-15 23:02:00,
2013-03-15 15:12:00,21.0,-1.0,-100.00,SSE,148,7.0,13.0,37,0.00,,,0.00,278.000000,,2013-03-15 23:12:00,
2013-03-15 15:21:00,21.0,-1.0,-100.00,SSE,148,7.0,13.0,37,0.00,,,0.00,278.000000,,2013-03-15 23:21:00,
2013-03-15 15:42:00,21.0,-2.0,-100.00,SSE,147,7.0,11.0,35,0.00,,,0.00,223.000000,,2013-03-15 23:42:00,
2013-03-15 15:53:00,21.0,-2.0,-100.00,SSE,147,7.0,11.0,35,0.00,,,0.00,223.000000,,2013-03-15 23:53:00,
2013-03-15 16:02:00,21.0,-2.0,-100.00,SSE,147,7.0,11.0,35,0.00,,,0.00,223.000000,,2013-03-16 00:02:00,
2013-03-15 16:12:00,21.0,-2.0,-100.00,SSE,147,7.0,11.0,35,0.00,,,0.00,223.000000,,2013-03-16 00:12:00,
2013-03-15 16:22:00,21.0,-2.0,-100.00,SSE,147,7.0,11.0,35,0.00,,,0.00,223.000000,,2013-03-16 00:22:00,
2013-03-15 16:42:00,23.0,2.0,-100.00,SSE,148,7.0,11.0,39,0.00,,,0.00,199.000000,,2013-03-16 00:42:00,
2013-03-15 16:52:00,23.0,2.0,-100.00,SSE,148,7.0,11.0,39,0.00,,,0.00,199.000000,,2013-03-16 00:52:00,
2013-03-15 17:02:00,23.0,2.0,-100.00,SSE,148,7.0,11.0,39,0.00,,,0.00,199.000000,,2013-03-16 01:02:00,
2013-03-15 17:12:00,23.0,2.0,-100.00,SSE,148,7.0,11.0,39,0.00,,,0.00,199.000000,,2013-03-16 01:12:00,
2013-03-15 17:21:00,23.0,2.0,-100.00,SSE,148,7.0,11.0,39,0.00,,,0.00,199.000000,,2013-03-16 01:21:00,
2013-03-15 17:42:00,23.0,3.0,-100.00,SSE,149,7.0,15.0,41,0.00,,,0.00,144.000000,,2013-03-16 01:42:00,
2013-03-15 17:52:00,23.0,3.0,-100.00,SSE,149,7.0,15.0,41,0.00,,,0.00,144.000000,,2013-03-16 01:52:00,
2013-03-15 18:02:00,23.0,3.0,-100.00,SSE,149,7.0,15.0,41,0.00,,,0.00,144.000000,,2013-03-16 02:02:00,
2013-03-15 18:12:00,23.0,3.0,-100.00,SSE,149,7.0,15.0,41,0.00,,,0.00,144.000000,,2013-03-16 02:12:00,
2013-03-15 18:22:00,23.0,3.0,-100.00,SSE,149,7.0,15.0,41,0.00,,,0.00,144.000000,,2013-03-16 02:22:00,
2013-03-15 18:43:00,23.0,4.0,-100.00,SSE,151,6.0,13.0,44,0.00,,,0.00,59.000000,,2013-03-16 02:43:00,
2013-03-15 18:52:00,23.0,4.0,-100.00,SSE,151,6.0,13.0,44,0.00,,,0.00,59.000000,,2013-03-16 02:52:00,
2013-03-15 19:02:00,23.0,4.0,-100.00,SSE,151,6.0,13.0,44,0.00,,,0.00,59.000000,,2013-03-16 03:02:00,
2013-03-15 19:12:00,23.0,4.0,-100.00,SSE,151,6.0,13.0,44,0.00,,,0.00,59.000000,,2013-03-16 03:12:00,
2013-03-15 19:21:00,23.0,4.0,-100.00,SSE,151,6.0,13.0,44,0.00,,,0.00,59.000000,,2013-03-16 03:21:00,
2013-03-15 19:43:00,21.0,4.0,-100.00,SSE,156,6.0,11.0,46,0.00,,,0.00,18.000000,,2013-03-16 03:43:00,
2013-03-15 19:53:00,21.0,4.0,-100.00,SSE,156,6.0,11.0,46,0.00,,,0.00,18.000000,,2013-03-16 03:53:00,
2013-03-15 20:02:00,21.0,4.0,-100.00,SSE,156,6.0,11.0,46,0.00,,,0.00,18.000000,,2013-03-16 04:02:00,
2013-03-15 20:12:00,21.0,4.0,-100.00,SSE,156,6.0,11.0,46,0.00,,,0.00,18.000000,,2013-03-16 04:12:00,
2013-03-15 20:22:00,21.0,4.0,-100.00,SSE,156,6.0,11.0,46,0.00,,,0.00,18.000000,,2013-03-16 04:22:00,
2013-03-15 20:43:00,21.0,5.0,-100.00,SSE,155,6.0,11.0,49,0.00,,,0.00,0.000000,,2013-03-16 04:43:00,
2013-03-15 20:53:00,21.0,5.0,-100.00,SSE,155,6.0,11.0,49,0.00,,,0.00,0.000000,,2013-03-16 04:53:00,
2013-03-15 21:02:00,21.0,5.0,-100.00,SSE,155,6.0,11.0,49,0.00,,,0.00,0.000000,,2013-03-16 05:02:00,
2013-03-15 21:12:00,21.0,5.0,-100.00,SSE,155,6.0,11.0,49,0.00,,,0.00,0.000000,,2013-03-16 05:12:00,
2013-03-15 21:21:00,21.0,5.0,-100.00,SSE,155,6.0,11.0,49,0.00,,,0.00,0.000000,,2013-03-16 05:21:00,
2013-03-15 21:42:00,21.0,4.0,-100.00,SSE,156,5.0,8.0,47,0.00,,,0.00,0.000000,,2013-03-16 05:42:00,
2013-03-15 21:53:00,21.0,4.0,-100.00,SSE,156,5.0,8.0,47,0.00,,,0.00,0.000000,,2013-03-16 05:53:00,
2013-03-15 22:02:00,21.0,4.0,-100.00,SSE,156,5.0,8.0,47,0.00,,,0.00,0.000000,,2013-03-16 06:02:00,
2013-03-15 22:12:00,21.0,4.0,-100.00,SSE,156,5.0,8.0,47,0.00,,,0.00,0.000000,,2013-03-16 06:12:00,
2013-03-15 22:21:00,21.0,4.0,-100.00,SSE,156,5.0,8.0,47,0.00,,,0.00,0.000000,,2013-03-16 06:21:00,
2013-03-15 22:42:00,21.0,5.0,-100.00,SE,143,3.0,9.0,49,0.00,,,0.00,0.000000,,2013-03-16 06:42:00,
2013-03-15 22:52:00,21.0,5.0,-100.00,SE,143,3.0,9.0,49,0.00,,,0.00,0.000000,,2013-03-16 06:52:00,
2013-03-15 23:02:00,21.0,5.0,-100.00,SE,143,3.0,9.0,49,0.00,,,0.00,0.000000,,2013-03-16 07:02:00,
2013-03-15 23:12:00,21.0,5.0,-100.00,SE,143,3.0,9.0,49,0.00,,,0.00,0.000000,,2013-03-16 07:12:00,
2013-03-15 23:21:00,21.0,5.0,-100.00,SE,143,3.0,9.0,49,0.00,,,0.00,0.000000,,2013-03-16 07:21:00,
2013-03-15 23:42:00,21.0,11.0,-100.00,SE,145,1.0,6.0,63,0.00,,,0.00,0.000000,,2013-03-16 07:42:00,
2013-03-15 23:52:00,21.0,11.0,-100.00,SE,145,1.0,6.0,63,0.00,,,0.00,0.000000,,2013-03-16 07:52:00,